Wind_Speed
87 87 87 87 87 88 86 84 82 81 80 78 76 76 78 79 80 81 82 83 85 86 86 86 87 88 89 89 89 89 89 90 90 90 91 91 93 94 94 94 95 96 97 99 99 99 99 99 99 100 100 101 102 103 104 104 105 106 108 109 109 109
86 86 90 91 92 92 91 88 87 85 84 82 80 79 80 81 82 83 85 87 88 89 89 89 90 90 91 91 92 92 92 93 93 93 93 94 95 96 97 96 97 97 99 101 102 103 103 102 102 102 103 104 104 105 105 105 105 107 109 110 110 109
92 91 94 96 96 96 94 93 92 91 89 88 87 86 85 86 88 90 89 89 91 92 92 92 92 93 93 93 94 95 96 97 96 95 95 96 97 98 99 100 101 101 101 102 103 104 104 104 103 104 105 106 107 108 107 107 107 109 110 111 111 110
100 101 101 102 101 100 98 97 97 96 95 93 93 92 92 93 95 95 94 92 93 94 95 95 96 96 96 96 96 97 99 100 99 99 99 99 99 100 101 103 104 103 102 103 105 106 107 106 106 107 107 108 109 110 109 109 109 110 111 112 111 109
103 105 106 107 106 104 103 101 100 100 100 99 98 98 97 98 99 99 97 96 96 97 98 98 99 99 100 99 99 101 102 102 102 103 103 103 103 103 103 104 105 105 105 106 108 109 109 109 109 109 109 110 111 111 110 110 110 111 111 110 109 107
105 107 108 109 109 108 107 106 104 103 102 102 102 101 101 101 101 101 100 99 99 100 100 100 100 102 104 104 104 105 105 105 105 107 108 109 109 109 108 107 108 109 110 111 110 110 111 112 112 112 111 111 111 111 110 110 110 110 109 108 107 105
107 109 110 111 111 110 109 109 107 105 103 103 102 102 103 103 103 103 102 101 101 101 101 101 101 103 106 108 108 108 108 109 110 111 113 114 114 114 113 111 111 112 113 113 112 112 113 114 114 113 113 112 112 111 110 110 109 108 107 106 105 104
110 112 112 112 112 112 112 112 109 105 104 103 103 102 103 104 104 104 104 103 102 102 102 102 103 105 107 109 109 109 109 111 112 114 116 117 117 117 116 115 115 115 115 116 115 115 115 115 115 115 114 112 110 108 107 106 106 106 106 106 105 104
112 114 115 113 113 113 114 112 109 107 105 104 104 103 104 106 106 105 104 103 102 102 102 103 104 106 109 110 110 110 111 112 113 115 116 117 118 118 118 118 118 118 119 119 118 117 116 116 116 115 112 108 105 103 102 102 103 104 104 104 104 104
111 113 114 113 113 113 113 111 109 108 106 105 105 105 106 108 107 105 103 102 101 101 101 101 103 104 106 107 108 110 111 112 113 115 116 117 117 118 118 119 119 119 119 119 118 118 117 116 115 112 108 105 103 101 100 100 100 101 101 102 102 102
110 112 113 113 113 114 112 110 108 107 106 105 105 106 107 107 106 103 101 101 100 99 97 96 96 97 98 99 100 103 107 110 112 114 116 117 117 118 118 119 118 118 119 119 119 118 116 114 112 109 106 103 101 100 100 100 100 99 100 100 101 101
107 110 112 114 115 115 112 108 106 105 104 104 105 106 106 105 103 101 100 101 101 100 99 96 95 95 94 93 94 96 99 103 106 110 112 113 113 114 114 115 115 116 117 117 117 115 113 111 109 106 103 101 100 100 100 100 100 100 99 100 100 101
106 109 111 112 114 115 113 109 107 105 103 102 103 104 104 102 100 98 99 101 101 101 101 99 98 97 95 94 94 95 95 96 99 101 104 106 108 109 110 110 111 112 113 113 113 112 111 109 106 103 101 100 100 100 100 100 100 100 99 99 100 100
105 107 109 110 111 112 111 109 107 104 101 98 98 99 100 98 98 98 99 100 101 103 103 102 101 100 100 101 101 102 101 99 99 100 102 104 106 107 108 109 109 110 111 111 111 111 109 106 103 100 100 100 100 100 100 100 100 99 99 99 99 99
106 106 107 108 109 110 110 108 106 103 100 99 100 100 100 100 101 102 104 105 106 108 109 109 109 108 109 110 111 111 110 109 108 109 109 110 110 110 110 110 109 109 109 110 110 108 106 103 101 100 100 101 101 101 102 101 100 99 99 99 99 100
107 106 107 108 109 111 113 111 109 106 105 105 105 105 106 107 108 109 110 112 114 116 118 118 119 118 118 118 118 118 117 117 118 119 119 118 117 116 114 112 111 111 111 111 110 107 105 105 104 104 104 103 104 104 104 103 101 100 100 100 100 99
113 111 111 112 113 116 118 118 116 114 113 113 113 112 112 113 113 113 115 116 119 121 124 125 126 125 125 124 124 123 122 123 124 124 124 122 121 119 119 118 117 117 118 116 113 110 110 110 110 108 107 106 106 106 105 104 103 102 101 101 100 98
119 118 117 117 119 122 124 125 123 122 121 121 119 116 114 114 114 117 120 122 125 127 128 127 127 125 124 124 124 123 123 123 123 122 121 121 121 121 122 122 123 123 122 119 116 115 115 114 112 110 108 108 107 107 107 106 105 104 103 102 100 98
125 124 122 122 123 125 127 127 126 125 125 125 122 119 118 118 121 124 127 129 131 130 128 124 121 120 118 117 117 117 117 117 116 116 117 118 119 120 121 122 124 124 123 120 117 117 116 114 113 111 110 109 108 107 108 107 105 104 102 101 100 100
129 130 129 128 128 128 129 130 130 130 131 131 129 127 126 126 127 127 127 127 126 125 122 118 116 114 113 112 110 110 110 111 112 113 114 115 116 116 118 120 121 122 121 119 117 117 116 115 113 112 111 110 109 108 108 106 104 103 102 101 102 102
124 127 129 130 131 131 132 133 134 135 136 135 133 130 128 126 124 121 119 118 117 116 114 113 112 111 109 108 107 108 108 109 110 111 112 112 112 113 115 116 118 119 119 118 116 116 115 114 113 112 112 111 110 109 107 105 103 102 102 102 103 103
119 121 123 124 126 128 129 129 130 131 131 130 128 125 122 119 116 114 112 111 111 111 110 110 110 109 108 107 106 107 108 108 109 109 110 110 109 110 111 112 114 115 116 115 115 115 114 114 113 112 112 111 109 108 106 105 104 104 104 104 104 103
113 114 116 118 120 122 123 124 124 124 124 123 121 120 118 115 113 111 110 109 108 109 108 108 107 107 106 106 105 105 105 106 106 107 108 108 108 108 109 110 111 113 114 114 114 114 113 113 112 111 110 110 109 107 106 106 106 106 105 104 103 102
108 109 110 112 114 116 118 119 120 119 119 119 118 118 116 115 115 114 112 110 108 108 108 107 107 107 106 106 106 105 104 104 104 105 106 106 105 106 107 109 110 112 113 113 113 112 112 111 110 110 109 109 109 108 107 108 107 106 105 104 103 101
106 107 108 109 111 113 114 115 116 116 116 116 117 117 116 115 116 116 115 114 112 110 110 109 109 109 109 109 108 108 106 105 104 104 104 105 104 104 105 107 109 111 112 112 111 111 110 110 109 109 109 109 109 109 108 108 107 106 106 105 103 102
103 104 105 107 109 110 111 112 113 113 114 114 115 115 115 115 115 115 115 114 113 113 112 112 111 111 111 111 111 110 108 107 106 105 105 104 104 104 105 106 108 109 110 110 110 110 110 109 109 109 109 110 110 109 109 108 107 106 106 105 103 102
101 101 101 104 106 108 110 111 112 111 112 113 113 114 114 114 114 114 113 113 112 112 112 112 111 111 110 110 110 110 109 108 107 106 106 105 106 106 106 107 108 109 110 110 110 110 110 109 108 108 109 110 111 110 109 108 107 106 105 104 104 102
99 99 99 101 104 107 109 109 110 110 110 110 110 111 112 112 112 111 110 110 110 110 110 109 109 108 108 108 108 108 108 108 107 107 107 106 107 107 108 108 109 109 110 110 110 110 110 109 108 107 107 109 111 112 111 109 108 107 106 105 104 103
98 97 97 98 101 104 106 106 106 107 107 107 107 107 108 109 109 108 107 106 105 105 105 105 104 104 104 104 104 104 104 105 105 106 106 106 107 107 108 108 109 109 110 110 110 110 109 108 107 106 105 106 108 110 111 112 111 109 106 105 106 105
98 96 95 95 97 99 102 102 103 103 103 104 103 103 104 105 106 105 103 102 101 100 100 100 100 99 99 99 100 100 101 102 103 103 104 105 105 106 107 108 108 108 109 110 110 110 110 109 108 107 106 106 105 106 108 111 112 111 109 107 106 106
98 96 94 94 95 96 98 99 101 101 101 101 101 100 101 102 103 102 100 98 97 96 96 97 97 97 97 97 97 97 98 99 101 101 102 103 104 105 106 107 107 107 108 109 110 111 111 111 111 110 109 107 106 106 106 107 109 110 111 110 109 107
99 97 96 96 97 97 97 98 100 100 100 99 99 99 99 100 100 100 98 95 94 94 95 95 96 96 97 97 97 97 98 99 100 101 102 102 103 105 106 106 105 106 107 109 110 111 112 112 113 113 112 110 109 108 106 105 105 106 108 111 111 110
100 99 98 98 98 98 97 97 99 100 101 100 99 98 98 99 100 99 96 94 93 93 93 94 95 95 96 97 98 98 99 100 101 102 102 103 104 105 106 106 106 106 107 108 109 110 112 113 114 115 114 114 112 109 106 105 104 104 106 108 110 111
101 100 99 98 98 98 97 98 99 101 102 102 100 98 97 98 100 99 96 95 93 92 92 92 93 94 95 96 97 99 100 101 101 101 102 103 104 105 106 106 106 106 106 107 108 110 111 113 114 115 116 115 114 110 107 106 105 105 105 106 108 109
101 101 99 97 97 97 97 98 99 101 103 103 101 99 97 97 99 99 97 95 94 92 91 91 91 92 93 95 96 98 99 100 100 101 101 102 103 103 104 104 105 105 105 106 107 108 110 111 113 114 116 117 116 114 110 108 107 106 106 105 106 107
100 100 99 97 95 94 96 97 99 102 103 103 102 100 98 97 98 99 98 96 95 93 91 90 90 91 92 94 95 97 98 99 100 100 100 100 99 99 100 101 102 103 103 104 105 106 108 109 111 113 115 117 118 116 114 112 109 107 106 105 105 106
97 97 98 96 93 92 93 95 98 101 102 101 100 99 97 96 97 97 97 96 96 94 93 91 91 91 92 94 95 96 97 98 99 99 99 98 97 96 96 97 98 99 101 102 103 105 106 108 109 111 114 117 118 117 115 114 111 108 106 106 106 106
91 92 93 93 91 89 89 90 94 97 98 97 96 95 93 93 95 95 94 94 94 94 94 93 92 92 92 93 95 96 97 97 97 97 97 96 95 95 94 94 95 97 99 101 102 103 105 106 108 110 114 116 116 115 114 113 111 109 107 106 105 105
Wind_Direction
266 267 266 266 266 266 265 264 264 263 262 263 265 265 266 266 267 270 272 275 276 277 278 279 280 280 281 281 282 282 282 282 282 282 282 282 282 282 282 283 284 285 285 285 285 285 285 285 285 284 285 285 286 286 287 287 287 287 287 287 287 287
267 267 268 267 267 268 267 265 263 263 263 264 265 265 264 266 268 269 270 271 272 274 275 277 278 278 279 279 279 279 279 279 280 280 280 281 281 280 280 281 281 282 283 283 284 284 284 284 284 285 285 285 285 286 286 287 287 287 286 286 286 287
265 265 266 267 267 268 268 266 264 262 262 263 265 266 265 266 268 270 271 271 271 272 274 275 276 276 277 277 277 277 277 277 277 278 278 279 280 280 279 279 279 280 281 282 283 283 283 284 285 285 285 285 285 285 285 285 286 286 285 285 285 286
264 263 264 264 264 265 266 266 265 264 263 263 265 266 268 269 270 271 272 272 272 274 275 276 276 276 276 276 275 275 275 276 276 276 276 277 278 279 278 277 277 278 280 281 281 282 282 283 284 285 285 284 283 284 284 284 284 284 284 284 285 285
266 265 265 264 263 262 263 263 264 265 265 265 266 267 269 270 271 272 272 273 274 275 276 276 276 275 275 276 275 274 275 275 275 275 276 276 277 277 277 276 276 276 278 279 279 279 280 281 282 283 283 282 282 283 283 283 283 283 283 284 285 285
268 268 267 266 265 264 263 262 262 263 265 266 268 269 270 271 272 273 273 274 274 275 276 277 276 276 276 276 276 275 275 276 276 275 276 276 276 277 277 276 275 275 276 277 278 278 279 279 280 282 283 282 282 283 283 282 282 282 283 284 285 285
268 267 267 268 268 268 266 264 262 263 264 266 269 270 271 272 273 274 274 274 274 275 275 276 275 275 275 275 275 275 275 275 275 275 275 276 276 276 277 276 276 275 275 276 276 277 278 278 279 280 281 280 281 281 281 281 281 281 282 283 285 285
266 266 266 266 267 267 267 266 266 265 266 267 269 271 272 273 274 274 274 275 275 276 276 276 276 275 274 275 275 274 274 273 273 273 273 274 274 275 275 275 276 275 275 275 275 276 277 277 277 279 279 279 279 280 280 280 281 281 282 283 284 284
262 263 264 264 265 265 265 266 267 267 268 268 269 270 271 272 272 273 273 275 276 276 276 275 275 274 275 276 275 275 274 273 272 272 272 272 273 273 273 274 275 274 274 274 274 275 276 276 277 278 278 278 279 280 281 282 283 283 283 284 284 284
261 261 263 263 264 264 265 265 266 266 267 268 269 269 269 270 271 272 274 276 277 277 277 276 275 275 276 276 275 274 274 273 272 272 272 272 273 273 273 274 274 274 274 274 274 275 275 275 276 277 278 279 280 281 282 284 284 284 285 285 285 285
262 263 264 265 265 265 265 265 266 266 268 269 270 271 271 271 272 273 274 274 275 275 275 275 276 276 276 276 275 274 273 272 272 271 271 272 273 273 274 274 275 274 274 274 274 274 275 275 276 277 278 280 281 282 284 285 285 286 286 286 286 286
264 264 265 266 266 266 266 267 268 268 269 271 272 272 272 272 272 271 271 272 272 272 272 272 273 274 274 275 275 274 274 273 272 272 272 272 273 273 274 274 274 274 274 274 274 274 275 276 277 279 280 281 282 284 285 286 287 287 288 288 288 288
269 269 268 268 268 267 266 267 268 268 269 269 270 271 271 272 273 274 275 276 277 276 276 275 275 275 276 276 276 276 276 275 274 274 273 273 273 273 273 274 274 274 274 274 275 275 277 278 280 281 282 283 284 285 286 287 288 289 289 290 290 291
272 272 272 273 272 270 269 269 270 270 271 272 273 274 275 277 279 280 282 283 284 283 283 282 282 282 282 282 281 281 281 280 279 278 277 276 276 276 276 276 276 276 277 277 277 278 279 280 281 282 283 285 286 287 288 289 290 290 290 291 292 293
272 272 273 274 274 273 273 273 273 275 277 278 278 279 281 282 283 284 284 285 285 286 286 285 285 285 285 284 284 284 284 284 284 284 283 282 281 280 280 280 279 279 279 279 279 279 280 282 283 285 286 287 289 289 290 290 291 291 292 293 293 293
270 270 271 272 273 273 274 275 276 278 279 280 280 281 282 283 283 283 283 283 283 283 283 283 284 283 283 283 283 284 285 285 286 286 285 284 284 283 283 283 283 283 282 282 282 283 284 286 287 288 288 289 290 290 291 291 291 292 292 293 293 293
268 268 268 269 270 271 272 273 274 275 276 276 277 278 279 279 280 281 281 281 280 280 280 280 280 280 280 281 281 282 283 284 284 284 284 284 284 284 284 284 285 285 285 285 285 286 287 288 289 289 289 289 290 290 291 291 291 292 293 293 293 292
264 265 266 267 268 269 270 271 272 273 273 274 275 277 278 280 281 281 281 281 281 280 279 279 279 279 279 279 280 280 281 281 281 281 281 281 281 281 282 282 283 283 284 285 286 287 287 288 288 288 289 289 289 290 290 291 292 292 293 293 292 292
260 262 263 264 265 267 268 269 271 272 272 273 275 277 279 280 280 280 280 280 280 280 279 279 279 279 279 278 278 279 279 279 278 278 278 278 278 278 279 280 280 281 282 284 285 285 286 287 287 288 288 289 289 290 290 291 291 292 292 292 292 292
261 262 263 263 264 264 265 266 267 269 270 271 273 275 276 276 276 277 277 278 278 278 278 278 278 278 278 278 278 278 278 277 277 277 277 277 277 277 277 278 279 280 282 283 284 285 285 286 287 288 288 289 289 289 290 290 290 291 291 291 292 292
265 264 264 264 264 264 265 265 266 268 269 271 272 273 273 274 274 275 275 275 275 276 276 277 277 277 277 277 278 278 277 277 276 276 277 277 277 277 277 277 278 280 281 282 283 284 285 286 286 287 288 288 288 289 289 289 290 290 291 291 292 291
267 267 267 267 266 266 267 267 268 269 270 271 272 273 273 273 274 274 274 274 274 274 275 275 275 276 276 277 277 277 276 276 276 276 276 277 277 277 277 277 278 279 281 282 283 284 284 285 286 286 287 287 287 287 288 289 289 290 291 291 291 291
268 268 268 268 269 269 269 270 270 271 272 272 273 273 273 274 274 274 273 273 273 273 274 274 275 275 276 276 276 276 276 276 276 276 275 276 276 277 277 278 278 279 280 281 282 283 283 284 285 285 286 286 286 287 288 289 289 290 290 291 291 291
270 269 269 269 269 270 270 271 271 271 272 272 272 272 273 273 274 274 274 274 274 274 274 275 275 276 276 276 276 276 275 275 275 275 275 275 276 276 276 277 278 278 279 280 281 282 283 284 284 285 285 285 286 287 288 288 289 290 291 292 292 292
269 269 269 269 270 270 270 271 271 271 271 271 271 271 271 271 272 272 273 274 274 274 275 275 275 276 276 276 276 276 276 276 275 275 275 275 275 276 276 276 277 278 279 280 281 282 283 283 284 284 285 285 286 287 287 288 289 291 292 292 292 292
266 267 267 268 268 268 269 269 269 269 269 269 269 269 269 269 269 270 271 272 272 273 273 273 273 274 274 275 275 275 275 275 275 275 275 275 275 275 276 276 277 278 279 280 281 282 282 283 283 284 285 286 287 287 288 289 290 291 291 292 292 292
264 264 265 266 267 267 267 267 267 268 268 268 268 268 268 268 268 268 269 269 270 270 271 271 272 272 273 273 274 274 275 275 275 275 275 275 276 276 276 277 277 278 279 280 280 281 281 282 283 284 286 287 287 288 289 289 290 291 291 291 291 292
264 263 264 264 265 266 266 266 266 267 267 267 267 268 268 268 268 268 268 268 269 269 269 270 271 272 272 272 273 273 273 274 274 275 275 275 276 276 276 277 277 278 278 278 279 280 281 282 283 284 285 286 287 288 289 290 290 290 291 291 292 292
264 263 263 264 265 266 266 266 266 266 266 266 266 267 268 268 268 268 268 268 268 269 269 269 270 271 271 271 271 272 272 272 273 273 274 274 275 275 276 276 276 277 278 278 279 280 281 282 283 283 284 284 286 287 289 289 289 290 290 291 291 292
267 266 265 265 265 266 266 266 266 266 266 266 266 266 267 268 268 268 268 268 268 268 268 268 268 268 269 269 270 270 270 271 271 272 273 273 273 274 274 275 276 277 278 279 280 281 282 282 283 283 282 283 283 284 285 287 288 289 290 290 291 291
268 267 266 266 265 265 265 266 267 266 266 266 266 266 266 267 267 267 267 267 266 266 266 266 266 266 266 267 267 268 268 269 270 270 271 272 272 273 273 274 275 276 277 279 280 281 282 282 282 282 282 283 282 282 282 283 285 287 288 289 290 291
266 266 266 265 265 265 265 265 267 267 267 267 266 266 266 266 266 266 266 266 265 265 265 265 265 265 265 265 265 265 265 266 267 268 269 270 270 271 272 273 274 275 276 277 279 280 281 282 282 283 283 283 282 282 282 282 282 284 285 287 289 290
264 264 264 264 264 264 264 265 266 267 267 267 266 266 267 267 267 267 266 266 265 264 264 264 264 263 264 264 264 263 263 264 264 265 266 267 268 269 270 271 272 273 274 276 277 278 279 280 281 282 283 283 283 283 283 282 283 283 284 285 287 288
263 263 263 262 262 263 263 264 265 266 267 267 266 266 267 267 268 268 268 267 266 265 264 263 263 263 263 263 263 263 263 263 264 264 265 266 266 267 269 270 271 272 273 274 275 276 278 279 280 281 282 283 284 284 284 284 284 284 284 284 285 286
263 263 263 262 262 262 262 263 264 265 265 266 266 265 265 266 267 268 268 268 267 267 266 265 264 264 264 264 264 264 264 265 265 265 265 265 266 267 267 269 270 271 272 273 274 275 276 277 279 280 282 283 284 284 285 285 285 284 284 284 284 285
264 264 264 263 262 261 261 262 263 263 264 264 264 264 264 264 265 266 267 268 268 268 267 267 266 266 266 265 265 265 266 266 266 266 266 266 266 266 267 267 268 269 270 271 272 273 274 275 277 278 280 281 282 283 284 284 285 285 285 285 285 285
264 265 265 265 263 262 261 261 262 263 263 263 264 264 264 264 264 265 266 267 268 269 269 268 267 267 267 268 268 267 267 267 268 268 268 268 267 267 266 266 267 268 268 269 270 271 272 273 274 276 277 278 279 281 282 283 284 285 285 285 285 285
266 266 266 266 266 265 263 262 262 263 264 264 264 264 264 264 265 265 265 266 267 268 269 269 268 268 268 268 269 269 269 269 269 269 270 269 269 268 268 267 267 268 268 268 269 270 271 272 273 274 275 276 278 280 281 282 284 285 285 285 285 285
Height
10584 10582 10579 10579 10577 10575 10578 10579 10578 10578 10577 10577 10578 10578 10578 10577 10576 10576 10573 10570 10568 10566 10566 10566 10565 10563 10561 10560 10558 10557 10554 10551 10549 10548 10546 10543 10540 10536 10534 10532 10530 10527 10524 10521 10520 10519 10519 10518 10516 10513 10511 10508 10504 10500 10497 10493 10490 10486 10484 10482 10480 10478
10571 10569 10565 10564 10563 10561 10564 10566 10565 10564 10564 10565 10565 10565 10566 10565 10564 10563 10561 10559 10556 10555 10555 10554 10552 10550 10549 10547 10546 10544 10541 10538 10536 10535 10533 10531 10528 10524 10522 10520 10518 10515 10513 10510 10507 10504 10503 10503 10500 10498 10496 10493 10490 10487 10483 10480 10476 10473 10471 10468 10466 10464
10559 10556 10551 10548 10548 10549 10549 10549 10549 10550 10551 10552 10551 10551 10554 10554 10551 10549 10549 10547 10545 10544 10543 10541 10539 10538 10537 10535 10533 10531 10527 10525 10524 10523 10521 10519 10516 10512 10510 10508 10506 10504 10501 10498 10495 10491 10489 10488 10486 10483 10481 10479 10476 10473 10470 10467 10463 10459 10457 10454 10452 10450
10543 10540 10536 10532 10532 10535 10535 10534 10534 10535 10537 10538 10538 10538 10540 10539 10536 10536 10536 10535 10534 10533 10530 10528 10527 10526 10524 10523 10521 10517 10513 10512 10512 10510 10508 10507 10504 10501 10498 10495 10493 10491 10489 10486 10482 10478 10476 10474 10472 10469 10467 10464 10461 10458 10456 10453 10450 10446 10442 10440 10438 10436
10524 10521 10518 10513 10513 10516 10518 10519 10521 10521 10522 10523 10523 10525 10525 10522 10520 10520 10521 10522 10521 10519 10517 10515 10514 10512 10510 10509 10507 10503 10499 10498 10498 10496 10494 10492 10490 10488 10485 10482 10481 10479 10476 10473 10469 10466 10463 10460 10458 10455 10452 10449 10446 10444 10442 10439 10435 10431 10428 10426 10424 10422
10505 10502 10499 10495 10494 10496 10499 10502 10505 10506 10508 10509 10509 10510 10510 10506 10504 10504 10506 10507 10507 10505 10504 10502 10499 10496 10495 10494 10491 10488 10486 10485 10483 10481 10478 10477 10475 10473 10471 10470 10468 10466 10463 10460 10456 10453 10450 10447 10444 10441 10439 10435 10433 10430 10428 10424 10421 10417 10415 10412 10409 10407
10484 10482 10480 10479 10477 10478 10479 10480 10486 10491 10494 10495 10496 10495 10493 10490 10489 10488 10489 10490 10490 10490 10491 10489 10485 10483 10480 10477 10474 10473 10472 10470 10468 10465 10462 10461 10459 10456 10456 10455 10453 10451 10448 10445 10442 10439 10436 10433 10431 10428 10425 10422 10420 10417 10414 10411 10407 10404 10401 10398 10396 10393
10464 10462 10461 10462 10462 10461 10459 10460 10468 10476 10480 10482 10482 10481 10478 10474 10472 10472 10472 10472 10474 10475 10475 10473 10470 10467 10464 10461 10460 10458 10457 10455 10452 10449 10447 10445 10442 10441 10440 10439 10437 10435 10433 10430 10427 10424 10422 10419 10417 10414 10411 10409 10407 10404 10401 10398 10394 10391 10388 10385 10382 10378
10444 10442 10441 10444 10446 10445 10444 10448 10454 10460 10464 10466 10466 10466 10464 10460 10457 10457 10458 10458 10458 10459 10459 10457 10454 10451 10448 10447 10445 10442 10440 10437 10435 10433 10430 10428 10426 10425 10423 10422 10420 10418 10416 10414 10412 10409 10407 10404 10402 10399 10397 10395 10393 10390 10388 10385 10381 10378 10374 10370 10367 10363
10424 10423 10424 10428 10430 10429 10431 10436 10440 10444 10447 10449 10449 10448 10447 10445 10444 10446 10446 10445 10444 10443 10442 10439 10437 10435 10434 10432 10429 10427 10423 10420 10419 10417 10414 10411 10410 10408 10407 10405 10403 10401 10399 10398 10396 10394 10392 10389 10387 10384 10382 10380 10379 10376 10374 10371 10367 10364 10359 10355 10351 10347
10409 10409 10410 10412 10413 10413 10417 10422 10427 10430 10432 10433 10432 10430 10429 10429 10431 10433 10432 10429 10428 10426 10424 10423 10422 10420 10418 10415 10413 10410 10407 10405 10403 10401 10398 10396 10395 10393 10391 10389 10386 10384 10382 10381 10378 10376 10375 10373 10371 10369 10367 10366 10364 10361 10359 10356 10352 10348 10344 10339 10335 10331
10401 10399 10398 10398 10396 10396 10401 10408 10414 10417 10419 10420 10419 10416 10413 10413 10416 10417 10414 10411 10410 10408 10407 10409 10408 10405 10402 10399 10396 10394 10391 10389 10387 10385 10384 10382 10380 10378 10376 10373 10370 10368 10365 10363 10361 10359 10357 10356 10355 10354 10353 10351 10349 10345 10342 10339 10335 10331 10327 10322 10318 10315
10389 10387 10384 10382 10380 10379 10384 10392 10397 10399 10403 10406 10404 10400 10396 10396 10398 10397 10394 10391 10389 10387 10389 10391 10390 10388 10387 10384 10382 10379 10376 10374 10373 10371 10370 10368 10366 10363 10360 10357 10354 10351 10347 10345 10344 10342 10341 10340 10340 10340 10339 10335 10332 10329 10325 10322 10319 10315 10311 10307 10302 10299
10373 10371 10368 10365 10361 10360 10364 10371 10375 10377 10382 10385 10384 10380 10378 10379 10380 10378 10374 10372 10370 10369 10371 10372 10372 10372 10370 10368 10365 10363 10361 10360 10358 10357 10355 10353 10351 10348 10345 10342 10338 10334 10331 10329 10327 10326 10325 10325 10326 10324 10322 10318 10315 10312 10308 10305 10302 10298 10294 10291 10288 10285
10358 10356 10353 10350 10346 10343 10344 10349 10354 10358 10363 10365 10364 10363 10364 10366 10366 10364 10361 10358 10356 10356 10356 10356 10357 10358 10356 10354 10351 10348 10347 10346 10344 10342 10340 10337 10334 10332 10329 10327 10323 10319 10316 10312 10310 10310 10310 10310 10309 10307 10304 10301 10298 10295 10292 10289 10285 10282 10279 10276 10273 10270
10345 10344 10341 10338 10334 10328 10327 10331 10337 10342 10346 10347 10347 10349 10352 10353 10354 10353 10350 10348 10346 10344 10343 10342 10343 10344 10343 10341 10339 10336 10334 10333 10330 10328 10325 10321 10318 10315 10312 10309 10306 10302 10298 10294 10294 10295 10294 10293 10291 10290 10288 10286 10283 10280 10276 10273 10270 10267 10265 10262 10259 10256
10330 10331 10330 10328 10323 10318 10314 10316 10322 10328 10331 10332 10334 10336 10339 10341 10343 10342 10339 10336 10334 10330 10327 10326 10326 10327 10327 10325 10324 10322 10321 10319 10316 10313 10309 10305 10302 10299 10296 10293 10290 10286 10281 10279 10280 10280 10279 10277 10276 10275 10273 10270 10268 10266 10262 10258 10255 10253 10251 10248 10244 10241
10313 10315 10316 10315 10312 10306 10302 10302 10307 10313 10315 10316 10318 10321 10323 10326 10329 10328 10324 10321 10317 10313 10310 10308 10308 10309 10310 10309 10308 10308 10307 10304 10302 10298 10293 10290 10288 10285 10283 10280 10276 10272 10268 10267 10268 10267 10265 10264 10262 10260 10258 10256 10254 10252 10248 10244 10241 10239 10237 10233 10229 10226
10297 10298 10300 10301 10299 10294 10290 10288 10291 10295 10296 10297 10302 10307 10309 10312 10313 10311 10307 10304 10299 10295 10292 10291 10291 10292 10292 10292 10293 10292 10291 10288 10286 10283 10278 10275 10274 10272 10270 10267 10262 10257 10254 10254 10254 10253 10251 10249 10247 10245 10243 10241 10239 10238 10235 10231 10228 10225 10222 10218 10215 10211
10279 10280 10282 10284 10284 10281 10278 10276 10275 10277 10278 10281 10288 10294 10295 10295 10296 10294 10292 10288 10284 10280 10277 10275 10275 10275 10274 10275 10276 10276 10275 10272 10270 10267 10263 10260 10259 10258 10255 10252 10248 10244 10241 10240 10239 10238 10236 10235 10233 10230 10228 10226 10225 10224 10221 10217 10215 10212 10209 10205 10201 10198
10259 10260 10262 10265 10265 10263 10263 10262 10260 10260 10262 10266 10272 10276 10275 10274 10275 10276 10275 10272 10269 10266 10263 10261 10259 10259 10258 10259 10260 10259 10257 10255 10253 10251 10248 10245 10244 10243 10240 10238 10235 10231 10228 10227 10226 10224 10222 10221 10219 10217 10215 10213 10212 10209 10206 10203 10201 10198 10195 10192 10188 10184
10238 10239 10241 10243 10244 10244 10244 10244 10245 10245 10246 10249 10251 10253 10253 10252 10255 10257 10256 10254 10252 10250 10249 10246 10244 10244 10244 10243 10244 10243 10241 10239 10236 10234 10232 10230 10229 10228 10226 10224 10222 10218 10215 10214 10212 10211 10209 10207 10206 10204 10202 10200 10198 10195 10192 10189 10186 10183 10181 10178 10175 10171
10219 10221 10222 10222 10222 10223 10223 10224 10226 10228 10229 10231 10231 10231 10231 10231 10233 10235 10235 10235 10234 10233 10232 10231 10229 10228 10228 10227 10227 10226 10225 10223 10220 10217 10215 10214 10214 10213 10211 10209 10207 10205 10202 10200 10199 10198 10196 10195 10194 10191 10189 10186 10183 10181 10178 10174 10171 10169 10167 10164 10161 10157
10201 10202 10204 10204 10203 10202 10202 10203 10206 10208 10210 10212 10211 10211 10213 10213 10211 10211 10213 10215 10216 10215 10214 10214 10213 10211 10210 10208 10208 10207 10207 10206 10204 10202 10199 10198 10199 10198 10197 10195 10192 10190 10188 10187 10186 10185 10183 10182 10180 10177 10174 10171 10169 10167 10164 10160 10157 10155 10152 10148 10145 10141
10185 10185 10185 10186 10185 10185 10185 10185 10187 10189 10191 10192 10191 10191 10194 10195 10194 10193 10194 10195 10196 10197 10196 10196 10195 10193 10192 10190 10189 10188 10188 10189 10188 10186 10184 10183 10184 10184 10182 10180 10178 10175 10173 10172 10171 10170 10168 10166 10164 10162 10159 10157 10154 10153 10151 10146 10143 10140 10137 10133 10129 10126
10170 10172 10170 10170 10169 10168 10169 10169 10169 10171 10172 10172 10172 10171 10174 10176 10176 10177 10179 10178 10179 10179 10178 10177 10177 10177 10176 10174 10172 10171 10171 10171 10171 10170 10170 10169 10169 10169 10168 10166 10163 10161 10159 10158 10156 10154 10152 10151 10149 10147 10145 10142 10139 10137 10135 10132 10129 10126 10123 10118 10114 10112
10153 10157 10157 10156 10153 10151 10151 10151 10151 10154 10155 10153 10152 10152 10153 10155 10157 10159 10161 10162 10162 10161 10161 10160 10161 10161 10160 10158 10156 10154 10154 10153 10154 10154 10155 10154 10154 10153 10152 10150 10148 10146 10144 10143 10142 10139 10137 10136 10135 10133 10130 10126 10123 10121 10119 10118 10114 10111 10108 10104 10100 10098
10134 10137 10140 10141 10137 10133 10133 10133 10134 10136 10136 10135 10134 10134 10134 10135 10137 10139 10141 10143 10144 10144 10144 10144 10145 10144 10143 10141 10139 10138 10137 10137 10138 10138 10139 10139 10138 10137 10136 10134 10132 10131 10129 10128 10126 10124 10123 10122 10121 10120 10117 10111 10107 10104 10103 10102 10099 10096 10093 10090 10086 10083
10113 10116 10121 10124 10122 10117 10115 10117 10119 10119 10118 10117 10118 10117 10116 10116 10118 10120 10122 10124 10126 10127 10127 10128 10128 10127 10125 10124 10122 10122 10122 10122 10122 10122 10123 10123 10122 10120 10119 10118 10116 10114 10112 10110 10109 10108 10107 10107 10107 10106 10103 10099 10095 10091 10087 10085 10083 10080 10079 10077 10072 10068
10092 10096 10101 10106 10107 10103 10100 10100 10101 10100 10099 10099 10100 10101 10101 10100 10100 10102 10104 10107 10109 10111 10111 10111 10111 10110 10109 10108 10107 10107 10107 10107 10107 10107 10107 10106 10104 10103 10102 10101 10099 10098 10095 10093 10091 10091 10091 10091 10091 10089 10088 10086 10085 10081 10076 10071 10068 10065 10064 10062 10058 10055
10073 10076 10080 10084 10085 10083 10083 10083 10081 10080 10080 10080 10080 10082 10084 10085 10084 10085 10088 10091 10093 10095 10095 10094 10095 10095 10095 10094 10094 10094 10093 10093 10092 10092 10091 10090 10088 10086 10085 10085 10084 10083 10080 10077 10076 10075 10074 10074 10073 10072 10072 10072 10071 10069 10066 10062 10057 10053 10051 10048 10044 10042
10053 10055 10059 10062 10062 10062 10064 10066 10064 10062 10061 10061 10061 10062 10063 10065 10067 10069 10072 10076 10078 10079 10079 10079 10080 10080 10080 10081 10080 10080 10079 10079 10078 10077 10077 10076 10074 10071 10070 10071 10071 10069 10066 10065 10063 10061 10059 10057 10055 10054 10056 10055 10054 10053 10053 10051 10048 10045 10041 10036 10031 10029
10035 10037 10040 10043 10043 10044 10047 10049 10049 10046 10043 10041 10043 10044 10044 10045 10047 10051 10055 10059 10061 10063 10064 10064 10065 10065 10065 10065 10065 10065 10065 10064 10064 10063 10064 10063 10062 10059 10058 10059 10058 10057 10055 10054 10052 10049 10046 10043 10041 10040 10039 10037 10036 10037 10038 10036 10034 10033 10029 10025 10021 10018
10017 10018 10022 10024 10026 10027 10029 10032 10033 10030 10025 10022 10024 10027 10028 10029 10030 10032 10036 10039 10041 10044 10047 10048 10049 10050 10050 10050 10050 10049 10049 10049 10050 10051 10051 10050 10049 10048 10047 10047 10046 10045 10045 10044 10041 10038 10034 10031 10029 10026 10022 10020 10019 10020 10020 10019 10019 10017 10014 10013 10010 10007
10000 10001 10004 10007 10008 10010 10012 10014 10016 10014 10007 10005 10007 10010 10012 10014 10014 10016 10018 10020 10022 10025 10028 10031 10033 10034 10034 10034 10034 10033 10034 10035 10036 10037 10037 10037 10037 10038 10037 10036 10035 10034 10033 10031 10028 10026 10022 10018 10015 10012 10008 10005 10003 10003 10003 10003 10002 10000 9999 9998 9997 9994
9983 9985 9987 9989 9992 9995 9996 9998 10000 9996 9990 9990 9992 9994 9997 10000 10000 10001 10003 10004 10006 10008 10011 10013 10015 10016 10017 10018 10018 10018 10019 10019 10020 10021 10022 10024 10026 10026 10026 10025 10024 10023 10021 10018 10015 10013 10009 10006 10003 10000 9996 9991 9988 9988 9989 9988 9986 9985 9984 9983 9981 9980
9969 9971 9971 9972 9976 9980 9981 9984 9984 9979 9975 9976 9978 9979 9982 9985 9986 9987 9989 9989 9991 9993 9995 9997 9998 9999 10000 10001 10002 10002 10003 10003 10003 10005 10006 10008 10010 10011 10012 10012 10011 10009 10007 10003 10001 9998 9996 9993 9991 9987 9982 9977 9975 9975 9975 9973 9971 9971 9970 9968 9966 9965
9955 9957 9957 9957 9960 9964 9967 9970 9969 9963 9961 9963 9963 9965 9969 9971 9971 9973 9975 9976 9977 9979 9980 9981 9982 9983 9984 9985 9985 9985 9986 9987 9988 9989 9989 9991 9992 9993 9995 9996 9995 9994 9991 9987 9985 9984 9981 9979 9977 9973 9968 9963 9962 9963 9963 9960 9958 9957 9955 9953 9952 9951